Miscellaneous Local Product
Issued by NWS Hastings, NE

Home | Current Version | Previous Version | Graphics & Text | Print | Product List | Glossary On
Versions: 1 2 3 4 5 6 7 8 9 10 11 12 13 14 15 16 17 18 19 20 21 22 23 24 25 26 27 28 29 30 31 32 33 34 35 36 37 38 39 40 41 42 43 44 45 46 47 48 49 50
000
AXUS43 KGID 251602
MISGRI

GID CWA HOURLY WEATHER ROUNDUP
NATIONAL WEATHER SERVICE HASTINGS NE
1000 AM CST SUN JAN 25 2015

NOTE: "FAIR" INDICATES FEW OR NO CLOUDS BELOW 12,000 FEET WITH NO
SIGNIFICANT WEATHER AND/OR OBSTRUCTIONS TO VISIBILITY.

...SOUTH CENTRAL NEBRASKA...

CITY           SKY/WX    TMP DP  RH WIND       PRES   REMARKS
GRAND ISLAND   CLOUDY    39  31  72 NW23G31   29.99R WCI  28
HASTINGS       CLOUDY    40  30  67 N23G37    29.98R WCI  30
KEARNEY        CLOUDY    39  28  65 NW18G26   30.02R WCI  30
ORD            CLOUDY    39  30  70 N22       30.00R WCI  29
YORK           CLOUDY    37  32  81 N20G30    29.94R WCI  27
AURORA         CLOUDY    38  33  84 N24G31    29.96R WCI  26
LEXINGTON      CLOUDY    37  30  73 NW12      30.04R WCI  30
HOLDREGE       MOSUNNY   40  29  64 NW24G32   30.01R WCI  29
HEBRON         CLOUDY    40  32  71 N16G28    29.94R WCI  32

...NEBRASKA PANHANDLE...

CITY           SKY/WX    TMP DP  RH WIND       PRES   REMARKS
CHADRON        CLOUDY    40  28  62 NW14      30.09R WCI  32
ALLIANCE       CLOUDY    38  29  70 W17       30.09R WCI  28
SCOTTSBLUFF    CLOUDY    36  29  75 N9        30.14R WCI  29
SIDNEY         SUNNY     40  28  62 NW14      30.12S WCI  32

...WESTERN AND NORTH CENTRAL NEBRASKA...

CITY           SKY/WX    TMP DP  RH WIND       PRES   REMARKS
VALENTINE      CLOUDY    36  28  73 NW15      30.05R WCI  27
AINSWORTH      CLOUDY    35  29  80 NW14G20   30.03R WCI  25
ONEILL         CLOUDY    37  35  92 NW13      29.98R WCI  28
BROKEN BOW     PTSUNNY   39  29  67 N30G39    30.01R WCI  27
IMPERIAL       SUNNY     38  26  62 NW9       30.09S WCI  31
NORTH PLATTE   SUNNY     36  26  67 NW14      30.06S WCI  27
MCCOOK         SUNNY     43  24  47 NW24G37   30.06R

...EASTERN NEBRASKA...

CITY           SKY/WX    TMP DP  RH WIND       PRES   REMARKS
NORFOLK        CLOUDY    34  31  88 N14       29.97R WCI  25
SO SIOUX CITY  CLOUDY    36  33  89 N16       29.96R WCI  26
TEKAMAH        CLOUDY    37  33  85 N21       29.93R WCI  26
COLUMBUS       CLOUDY    36  27  69 N15G22    29.97R WCI  26
ALBION         CLOUDY    36  32  84 N16G26    29.97R WCI  26
OMAHA EPPLEY   CLOUDY    36  33  89 N18       29.90R WCI  26
OFFUTT AFB     CLOUDY    37  32  85 N18G30    29.89R WCI  26
MILLARD        CLOUDY    37  32  84 N13G25    29.90R WCI  28
LINCOLN        PTSUNNY   38  31  76 N25G32    29.92R WCI  27
NEBRASKA CITY  CLOUDY    36  32  87 N17G29    29.85R WCI  25
BEATRICE       CLOUDY    37  32  83 N23G31    29.90R WCI  25
FALLS CITY     LGT RAIN  37  32  82 NW21G30   29.83R WCI  26

...NORTHERN KANSAS...

CITY           SKY/WX    TMP DP  RH WIND       PRES   REMARKS
GOODLAND       SUNNY     42  28  57 NW20G26   30.11R
HILL CITY      SUNNY     44  26  49 NW21G33   30.07R
NORTON         SUNNY     39  23  52 NW21G30   30.05  WCI  29
PHILLIPSBURG   SUNNY     43  30  61 NW18      30.04R
SMITH CENTER   PTSUNNY   41  28  60 NW24G35   30.02R
BELOIT         CLOUDY    45  30  57 NW23G35   29.98R
HAYS           SUNNY     45  25  45 NW26G33   30.04R
RUSSELL        SUNNY     44  29  55 NW29G40   30.01R
CONCORDIA      CLOUDY    42  33  70 N16G24    29.95R
SALINA         CLOUDY    46  30  53 NW26G36   29.95R
TOPEKA         CLOUDY    40  31  70 NW21G33   29.84R WCI  30



USA.gov is the U.S. government's official web portal to all federal, state and local government web resources and services.